Location: Central Coast NSW, Australia
(33.2407°S, 151.4316°E)
Time: 23:44:14
(UTC+10:00)

N. Korean satellite - Pass Details

Date: 30 March 2019
Orbit: 458 x 508 km, 97.2° (Epoch: 25 April)

Event Time Altitude Azimuth Distance (km) Brightness Sun altitude
Rises 06:20:42 0° 12° (NNE) 2,601 10.4 -9.9°
Reaches altitude 10° 06:22:46 10° 12° (NNE) 1,727 9.5 -9.5°
Maximum altitude 06:26:30 89° 280° (W) 521 6.7 -8.7°
Drops below altitude 10° 06:30:18 10° 191° (SSW) 1,752 9.3 -7.9°
Sets 06:32:24 0° 191° (S) 2,644 10.2 -7.5°
